CW3773 Weather Reports


Display with metric or nautical units.
time (UTC)temp
F
wind
direction
speed
MPH
gust
MPH
rain 1hr
in
rain 24hr
in
rain mn
in
humidity
%
barometer
mb
20181121133511 26 63 5.0 8.0 0.00 0.00 0.00 70 1026.0
20181121133311 26 62 3.0 5.0 0.00 0.00 0.00 71 1025.9
20181121133211 26 67 2.0 3.0 0.00 0.00 0.00 71 1025.9
20181121133111 26 50 0.0 0.0 0.00 0.00 0.00 71 1026.0
20181121132711 26 55 2.0 6.0 0.00 0.00 0.00 71 1025.8
20181121132411 26 51 1.0 8.0 0.00 0.00 0.00 71 1025.8
20181121132211 26 30 0.0 8.0 0.00 0.00 0.00 71 1025.8
20181121131911 26 63 0.0 4.0 0.00 0.00 0.00 72 1025.7
20181121131611 26 40 0.0 0.0 0.00 0.00 0.00 72 1025.6
20181121131211 26 28 3.0 5.0 0.00 0.00 0.00 72 1025.6
20181121131111 26 70 0.0 1.0 0.00 0.00 0.00 72 1025.6
20181121131011 26 53 3.0 6.0 0.00 0.00 0.00 72 1025.6
20181121130811 26 18 0.0 6.0 0.00 0.00 0.00 72 1025.5
20181121130711 27 22 1.0 5.0 0.00 0.00 0.00 72 1025.5
20181121130611 27 42 0.0 5.0 0.00 0.00 0.00 72 1025.5
20181121130310 27 51 0.0 10.0 0.00 0.00 0.00 72 1025.5
20181121130210 27 42 4.0 10.0 0.00 0.00 0.00 72 1025.4
20181121125910 27 5 2.0 9.0 0.00 0.00 0.00 73 1025.3
20181121125711 27 26 3.0 9.0 0.00 0.00 0.00 73 1025.2
20181121125611 27 28 0.0 5.0 0.00 0.00 0.00 73 1025.1
20181121125211 27 360 0.0 8.0 0.00 0.00 0.00 73 1025.0
20181121125011 27 49 4.0 7.0 0.00 0.00 0.00 73 1025.0
20181121124810 27 49 0.0 7.0 0.00 0.00 0.00 73 1024.9
20181121124610 27 38 2.0 5.0 0.00 0.00 0.00 73 1024.9
20181121124511 27 32 3.0 7.0 0.00 0.00 0.00 73 1024.8
20181121124410 27 19 0.0 7.0 0.00 0.00 0.00 73 1024.8
20181121124310 27 49 3.0 7.0 0.00 0.00 0.00 73 1024.7
20181121124110 27 56 4.0 7.0 0.00 0.00 0.00 73 1024.7
20181121124010 27 55 2.0 8.0 0.00 0.00 0.00 73 1024.7
20181121123810 27 35 4.0 5.0 0.00 0.00 0.00 73 1024.6
20181121123611 28 58 4.0 4.0 0.00 0.00 0.00 73 1024.6
20181121123510 28 59 6.0 9.0 0.00 0.00 0.00 73 1024.5
20181121123410 28 57 5.0 8.0 0.00 0.00 0.00 73 1024.5
20181121123310 28 42 1.0 8.0 0.00 0.00 0.00 73 1024.6
20181121123210 28 35 5.0 8.0 0.00 0.00 0.00 73 1024.6
20181121123110 28 348 3.0 4.0 0.00 0.00 0.00 73 1024.6
20181121123010 28 49 0.0 8.0 0.00 0.00 0.00 73 1024.5
20181121122911 28 49 0.0 8.0 0.00 0.00 0.00 72 1024.5
20181121122410 28 24 4.0 7.0 0.00 0.00 0.00 72 1024.5
20181121122310 28 57 5.0 7.0 0.00 0.00 0.00 72 1024.5
20181121122110 28 69 3.0 3.0 0.00 0.00 0.00 72 1024.5
20181121122011 28 50 0.0 10.0 0.00 0.00 0.00 72 1024.5
20181121121910 28 24 2.0 10.0 0.00 0.00 0.00 72 1024.5
20181121121810 28 360 8.0 10.0 0.00 0.00 0.00 72 1024.5
20181121121610 28 11 1.0 4.0 0.00 0.00 0.00 72 1024.5
20181121121310 28 360 7.0 7.0 0.00 0.00 0.00 72 1024.4
20181121121210 28 34 0.0 5.0 0.00 0.00 0.00 72 1024.3
20181121121010 28 10 0.0 7.0 0.00 0.00 0.00 72 1024.3
20181121120611 28 347 3.0 3.0 0.00 0.00 0.00 73 1024.1
20181121120310 28 31 4.0 5.0 0.00 0.00 0.00 73 1024.0
20181121120010 28 36 2.0 2.0 0.00 0.00 0.00 73 1023.9
20181121115910 28 35 0.0 2.0 0.00 0.00 0.00 73 1023.9
20181121115810 29 40 0.0 1.0 0.00 0.00 0.00 73 1023.9
20181121115710 29 40 0.0 1.0 0.00 0.00 0.00 73 1023.9
20181121115610 29 53 0.0 1.0 0.00 0.00 0.00 73 1023.8
20181121115512 29 19 0.0 5.0 0.00 0.00 0.00 73 1023.8
20181121115410 29 29 0.0 5.0 0.00 0.00 0.00 73 1023.8
20181121115310 29 29 0.0 5.0 0.00 0.00 0.00 73 1023.7
20181121115110 29 36 3.0 5.0 0.00 0.00 0.00 73 1023.6
20181121115010 29 29 0.0 2.0 0.00 0.00 0.00 73 1023.6
20181121114909 29 18 0.0 2.0 0.00 0.00 0.00 73 1023.5
20181121114710 29 32 0.0 0.0 0.00 0.00 0.00 73 1023.6
20181121114610 29 351 0.0 0.0 0.00 0.00 0.00 73 1023.7
20181121114409 29 348 4.0 5.0 0.00 0.00 0.00 73 1023.6
20181121114309 29 38 0.0 4.0 0.00 0.00 0.00 73 1023.6
20181121114209 29 334 0.0 4.0 0.00 0.00 0.00 73 1023.5
20181121114009 29 355 3.0 7.0 0.00 0.00 0.00 73 1023.5
20181121113809 29 348 0.0 4.0 0.00 0.00 0.00 73 1023.5
20181121113710 29 360 0.0 0.0 0.00 0.00 0.00 73 1023.5
20181121113209 29 19 0.0 8.0 0.00 0.00 0.00 73 1023.4
20181121113112 29 5 2.0 5.0 0.00 0.00 0.00 73 1023.4
20181121113009 29 360 8.0 9.0 0.00 0.00 0.00 73 1023.4
20181121112809 29 346 4.0 8.0 0.00 0.00 0.00 73 1023.4
20181121112709 29 339 4.0 8.0 0.00 0.00 0.00 73 1023.3
20181121112609 29 337 3.0 8.0 0.00 0.00 0.00 73 1023.3
20181121112209 29 355 4.0 9.0 0.00 0.00 0.00 73 1023.1
20181121112109 29 14 2.0 3.0 0.00 0.00 0.00 73 1023.2
20181121112009 29 28 9.0 10.0 0.00 0.00 0.00 73 1023.2
20181121111909 29 16 1.0 10.0 0.00 0.00 0.00 74 1023.1
20181121111609 29 5 7.0 7.0 0.00 0.00 0.00 74 1023.1
20181121111509 29 321 5.0 7.0 0.00 0.00 0.00 74 1023.1
20181121111409 29 351 0.0 7.0 0.00 0.00 0.00 74 1023.0
20181121111309 29 350 4.0 7.0 0.00 0.00 0.00 74 1022.9
20181121110909 29 17 0.0 8.0 0.00 0.00 0.00 74 1022.8
20181121110409 29 15 0.0 4.0 0.00 0.00 0.00 74 1022.6
20181121110309 29 350 0.0 4.0 0.00 0.00 0.00 74 1022.7
20181121110009 29 355 0.0 9.0 0.00 0.00 0.00 74 1022.5
20181121105909 29 351 3.0 7.0 0.00 0.00 0.00 74 1022.5
20181121105809 29 325 3.0 7.0 0.00 0.00 0.00 74 1022.5
20181121105709 29 15 0.0 4.0 0.00 0.00 0.00 74 1022.5
20181121105509 29 42 3.0 11.0 0.00 0.00 0.00 74 1022.5
20181121105409 29 13 0.0 11.0 0.00 0.00 0.00 74 1022.4
20181121105309 29 348 3.0 10.0 0.00 0.00 0.00 74 1022.4
20181121105209 29 29 3.0 10.0 0.00 0.00 0.00 74 1022.5
20181121105009 29 336 0.0 9.0 0.00 0.00 0.00 74 1022.4
20181121104909 29 336 0.0 9.0 0.00 0.00 0.00 74 1022.4
20181121104609 29 335 3.0 4.0 0.00 0.00 0.00 74 1022.3
20181121104510 29 5 1.0 4.0 0.00 0.00 0.00 74 1022.2
20181121104009 29 338 4.0 7.0 0.00 0.00 0.00 74 1022.2
20181121103609 29 325 0.0 3.0 0.00 0.00 0.00 74 1022.1
20181121103209 29 5 4.0 5.0 0.00 0.00 0.00 74 1022.1
20181121103109 29 327 4.0 5.0 0.00 0.00 0.00 74 1022.1
20181121102809 30 336 3.0 10.0 0.00 0.00 0.00 74 1022.0
20181121102408 30 360 0.0 7.0 0.00 0.00 0.00 75 1022.0
20181121102208 30 360 0.0 7.0 0.00 0.00 0.00 75 1021.9
20181121102008 30 355 8.0 10.0 0.00 0.00 0.00 75 1021.9
20181121101908 30 34 0.0 10.0 0.00 0.00 0.00 75 1021.9
20181121101708 30 334 0.0 4.0 0.00 0.00 0.00 75 1021.9
20181121101608 30 332 4.0 4.0 0.00 0.00 0.00 75 1021.9
20181121101508 30 350 0.0 7.0 0.00 0.00 0.00 75 1021.9
20181121101308 30 355 0.0 7.0 0.00 0.00 0.00 75 1021.8
20181121101108 30 318 1.0 7.0 0.00 0.00 0.00 75 1021.8
20181121100908 30 336 3.0 7.0 0.00 0.00 0.00 75 1021.8
20181121100708 30 314 5.0 7.0 0.00 0.00 0.00 75 1021.7
20181121100608 30 348 7.0 7.0 0.00 0.00 0.00 75 1021.7
20181121100508 30 333 5.0 8.0 0.00 0.00 0.00 75 1021.7
20181121100308 30 321 0.0 8.0 0.00 0.00 0.00 75 1021.6
20181121100208 30 315 4.0 8.0 0.00 0.00 0.00 75 1021.6
20181121100108 30 360 3.0 8.0 0.00 0.00 0.00 75 1021.6
20181121095708 30 300 0.0 6.0 0.00 0.00 0.00 75 1021.6
20181121095608 30 263 5.0 6.0 0.00 0.00 0.00 75 1021.6
20181121095408 30 326 0.0 6.0 0.00 0.00 0.00 75 1021.6
20181121095108 30 16 6.0 6.0 0.00 0.00 0.00 75 1021.5
20181121095008 30 5 0.0 5.0 0.00 0.00 0.00 75 1021.4
20181121094908 30 360 0.0 0.0 0.00 0.00 0.00 75 1021.4
20181121094608 30 360 0.0 0.0 0.00 0.00 0.00 75 1021.3
20181121094308 30 334 4.0 4.0 0.00 0.00 0.00 75 1021.2
20181121094208 30 319 0.0 4.0 0.00 0.00 0.00 75 1021.3
20181121094109 30 332 0.0 0.0 0.00 0.00 0.00 75 1021.3
20181121093808 30 329 0.0 0.0 0.00 0.00 0.00 75 1021.2
20181121093708 30 329 0.0 0.0 0.00 0.00 0.00 75 1021.2
20181121093508 30 329 0.0 7.0 0.00 0.00 0.00 75 1021.3
20181121093308 30 310 0.0 7.0 0.00 0.00 0.00 75 1021.3
20181121093208 30 310 0.0 7.0 0.00 0.00 0.00 75 1021.2
20181121093008 30 348 0.0 8.0 0.00 0.00 0.00 75 1021.3
20181121092908 30 355 8.0 8.0 0.00 0.00 0.00 75 1021.2
20181121092808 30 12 0.0 5.0 0.00 0.00 0.00 75 1021.2
20181121092708 30 305 0.0 5.0 0.00 0.00 0.00 75 1021.2
20181121092608 30 348 1.0 5.0 0.00 0.00 0.00 75 1021.2
20181121092408 30 306 0.0 1.0 0.00 0.00 0.00 75 1021.1
20181121092308 30 306 0.0 1.0 0.00 0.00 0.00 75 1021.1
20181121092208 30 306 0.0 1.0 0.00 0.00 0.00 74 1021.1
20181121092107 30 306 0.0 1.0 0.00 0.00 0.00 74 1021.1
20181121091908 30 303 0.0 8.0 0.00 0.00 0.00 74 1021.1
20181121091808 30 324 5.0 8.0 0.00 0.00 0.00 74 1021.1
20181121091708 30 323 4.0 5.0 0.00 0.00 0.00 74 1021.1
20181121091607 30 321 2.0 5.0 0.00 0.00 0.00 74 1021.2
20181121091307 30 267 5.0 5.0 0.00 0.00 0.00 74 1021.1
20181121091207 30 313 0.0 4.0 0.00 0.00 0.00 74 1021.1
20181121091108 30 310 3.0 4.0 0.00 0.00 0.00 74 1021.0
20181121091007 30 306 3.0 8.0 0.00 0.00 0.00 74 1021.0
20181121090908 30 346 1.0 5.0 0.00 0.00 0.00 74 1021.0
20181121090808 30 325 0.0 5.0 0.00 0.00 0.00 74 1021.0
20181121090708 30 333 3.0 5.0 0.00 0.00 0.00 74 1021.0
20181121090307 30 306 0.0 3.0 0.00 0.00 0.00 74 1020.9
20181121090108 30 306 0.0 3.0 0.00 0.00 0.00 74 1020.8
20181121090008 30 308 4.0 6.0 0.00 0.00 0.00 74 1020.7
20181121085907 30 338 0.0 4.0 0.00 0.00 0.00 74 1020.8
20181121085707 30 340 4.0 4.0 0.00 0.00 0.00 74 1020.7
20181121085607 30 334 0.0 3.0 0.00 0.00 0.00 74 1020.7
20181121085507 30 332 1.0 8.0 0.00 0.00 0.00 74 1020.7
20181121085407 30 342 5.0 8.0 0.00 0.00 0.00 74 1020.6
20181121085307 30 333 7.0 7.0 0.00 0.00 0.00 74 1020.6
20181121085107 30 280 5.0 5.0 0.00 0.00 0.00 74 1020.6
20181121084607 30 338 4.0 4.0 0.00 0.00 0.00 74 1020.6
20181121084507 30 276 0.0 7.0 0.00 0.00 0.00 74 1020.6
20181121084307 30 328 2.0 7.0 0.00 0.00 0.00 74 1020.5
20181121084107 30 277 7.0 7.0 0.00 0.00 0.00 74 1020.6
20181121084007 30 281 5.0 7.0 0.00 0.00 0.00 74 1020.6
20181121083807 30 286 6.0 6.0 0.00 0.00 0.00 74 1020.6
20181121083707 30 321 0.0 5.0 0.00 0.00 0.00 74 1020.5
20181121083507 30 284 3.0 6.0 0.00 0.00 0.00 74 1020.4
20181121083407 30 280 3.0 6.0 0.00 0.00 0.00 74 1020.5
20181121083307 30 280 5.0 6.0 0.00 0.00 0.00 74 1020.5
20181121083207 30 304 4.0 6.0 0.00 0.00 0.00 74 1020.4
20181121082807 30 262 9.0 9.0 0.00 0.00 0.00 74 1020.4
20181121082707 30 308 2.0 6.0 0.00 0.00 0.00 74 1020.5
20181121082607 30 309 4.0 6.0 0.00 0.00 0.00 74 1020.4
20181121082507 30 270 6.0 10.0 0.00 0.00 0.00 74 1020.4
20181121082407 30 269 5.0 10.0 0.00 0.00 0.00 75 1020.3
20181121082307 30 268 6.0 7.0 0.00 0.00 0.00 75 1020.4
20181121082207 30 275 5.0 5.0 0.00 0.00 0.00 74 1020.4
20181121081907 30 276 0.0 6.0 0.00 0.00 0.00 74 1020.4
20181121081807 30 276 3.0 6.0 0.00 0.00 0.00 74 1020.4
20181121081507 30 276 5.0 7.0 0.00 0.00 0.00 74 1020.3
20181121081307 30 276 3.0 7.0 0.00 0.00 0.00 74 1020.3
20181121081206 30 274 3.0 6.0 0.00 0.00 0.00 74 1020.3
20181121081107 30 274 5.0 6.0 0.00 0.00 0.00 74 1020.4
20181121081006 30 268 5.0 9.0 0.00 0.00 0.00 75 1020.3
20181121080507 30 270 3.0 10.0 0.00 0.00 0.00 75 1020.3
20181121080406 30 270 3.0 10.0 0.00 0.00 0.00 75 1020.3
20181121080107 30 265 5.0 6.0 0.00 0.00 0.00 75 1020.3
20181121075907 30 267 5.0 8.0 0.00 0.00 0.00 75 1020.2
20181121075706 30 269 3.0 3.0 0.00 0.00 0.00 75 1020.2
20181121075507 30 269 5.0 8.0 0.00 0.00 0.00 75 1020.2
20181121075406 30 269 3.0 8.0 0.00 0.00 0.00 75 1020.2
20181121075206 30 269 6.0 8.0 0.00 0.00 0.00 75 1020.2
20181121075106 30 268 5.0 6.0 0.00 0.00 0.00 75 1020.2
20181121075006 30 269 6.0 9.0 0.00 0.00 0.00 74 1020.2
20181121074907 30 269 3.0 9.0 0.00 0.00 0.00 74 1020.2
20181121074306 30 269 3.0 10.0 0.00 0.00 0.00 75 1020.2
20181121074106 30 257 7.0 7.0 0.00 0.00 0.00 74 1020.1
20181121073906 30 256 4.0 10.0 0.00 0.00 0.00 74 1020.2
20181121073806 30 265 8.0 10.0 0.00 0.00 0.00 75 1020.1
20181121073406 30 276 6.0 9.0 0.00 0.00 0.00 74 1020.2
20181121073006 30 257 4.0 9.0 0.00 0.00 0.00 75 1020.1
20181121072806 30 267 3.0 8.0 0.00 0.00 0.00 75 1020.2
20181121072506 30 258 7.0 9.0 0.00 0.00 0.00 75 1020.1
20181121072406 30 259 6.0 9.0 0.00 0.00 0.00 75 1020.1
20181121072206 30 252 6.0 7.0 0.00 0.00 0.00 74 1020.1
20181121072106 30 257 7.0 7.0 0.00 0.00 0.00 74 1020.2
20181121072006 30 274 6.0 8.0 0.00 0.00 0.00 74 1020.2
20181121071606 30 263 8.0 8.0 0.00 0.00 0.00 74 1020.1
20181121071306 30 265 6.0 10.0 0.00 0.00 0.00 74 1020.1
20181121071206 30 257 8.0 10.0 0.00 0.00 0.00 74 1020.1
20181121071106 30 236 8.0 8.0 0.00 0.00 0.00 74 1020.1
20181121071006 30 273 6.0 10.0 0.00 0.00 0.00 74 1020.0
20181121070606 30 261 7.0 9.0 0.00 0.00 0.00 74 1019.9
20181121070507 30 252 8.0 10.0 0.00 0.00 0.00 74 1020.0
20181121070206 30 244 9.0 10.0 0.00 0.00 0.00 74 1019.9
20181121070106 30 266 7.0 7.0 0.00 0.00 0.00 74 1019.9
20181121070006 30 259 6.0 12.0 0.00 0.00 0.00 74 1019.9
20181121065906 30 252 10.0 12.0 0.00 0.00 0.00 74 1019.9
20181121065806 30 267 7.0 11.0 0.00 0.00 0.00 74 1019.9
20181121065505 30 266 8.0 10.0 0.00 0.00 0.00 75 1019.9
20181121065406 30 265 10.0 10.0 0.00 0.00 0.00 75 1019.9
20181121065305 30 247 10.0 10.0 0.00 0.00 0.00 74 1019.9
20181121065206 30 254 10.0 10.0 0.00 0.00 0.00 74 1019.9
20181121065105 30 265 9.0 9.0 0.00 0.00 0.00 74 1019.9
20181121055305 30 266 9.0 14.0 0.00 0.00 0.00 74 1019.8
20181121055205 30 236 10.0 10.0 0.00 0.00 0.00 74 1019.8
20181121055105 30 250 9.0 12.0 0.00 0.00 0.00 73 1019.7
20181121054905 30 251 10.0 10.0 0.00 0.00 0.00 74 1019.8
20181121054705 30 269 6.0 8.0 0.00 0.00 0.00 74 1019.7
20181121054505 30 257 9.0 15.0 0.00 0.00 0.00 74 1019.7
20181121054405 30 259 6.0 15.0 0.00 0.00 0.00 73 1019.7
20181121054304 30 255 9.0 15.0 0.00 0.00 0.00 73 1019.8
20181121054204 30 257 10.0 15.0 0.00 0.00 0.00 73 1019.6
20181121054105 30 266 10.0 13.0 0.00 0.00 0.00 73 1019.6
20181121054005 30 268 8.0 11.0 0.00 0.00 0.00 73 1019.7
20181121053705 30 265 7.0 8.0 0.00 0.00 0.00 73 1019.6
20181121053604 30 271 8.0 13.0 0.00 0.00 0.00 73 1019.6
20181121053505 30 261 12.0 13.0 0.00 0.00 0.00 73 1019.6
20181121053405 30 269 9.0 13.0 0.00 0.00 0.00 74 1019.6
20181121053304 30 252 13.0 13.0 0.00 0.00 0.00 73 1019.6
20181121053104 30 264 10.0 13.0 0.00 0.00 0.00 74 1019.6
20181121053005 30 251 11.0 13.0 0.00 0.00 0.00 73 1019.6
20181121052904 30 261 9.0 13.0 0.00 0.00 0.00 73 1019.6
20181121052704 30 263 13.0 13.0 0.00 0.00 0.00 73 1019.5
20181121052604 30 243 10.0 15.0 0.00 0.00 0.00 73 1019.6
20181121052504 30 271 15.0 15.0 0.00 0.00 0.00 74 1019.5
20181121052404 30 263 10.0 10.0 0.00 0.00 0.00 74 1019.5
20181121052305 30 269 9.0 10.0 0.00 0.00 0.00 74 1019.5
20181121052204 30 262 8.0 10.0 0.00 0.00 0.00 74 1019.5
20181121052104 30 259 12.0 12.0 0.00 0.00 0.00 73 1019.5
20181121051804 30 264 8.0 10.0 0.00 0.00 0.00 73 1019.5
20181121051604 30 257 8.0 13.0 0.00 0.00 0.00 74 1019.4
20181121051504 30 270 13.0 13.0 0.00 0.00 0.00 73 1019.4
20181121051204 30 269 9.0 12.0 0.00 0.00 0.00 73 1019.4
20181121051104 30 256 10.0 11.0 0.00 0.00 0.00 74 1019.5
20181121051004 30 263 8.0 11.0 0.00 0.00 0.00 74 1019.5
20181121050904 30 265 8.0 11.0 0.00 0.00 0.00 74 1019.4
20181121050804 30 272 7.0 10.0 0.00 0.00 0.00 74 1019.5
20181121050704 30 253 9.0 9.0 0.00 0.00 0.00 74 1019.5
20181121050604 30 264 9.0 12.0 0.00 0.00 0.00 74 1019.5
20181121050504 30 256 8.0 12.0 0.00 0.00 0.00 74 1019.4
20181121050104 30 265 9.0 13.0 0.00 0.00 0.00 73 1019.4
20181121050004 30 267 7.0 13.0 0.00 0.00 0.00 73 1019.4
20181121045904 30 273 11.0 13.0 0.00 0.00 0.00 73 1019.4
20181121045804 30 274 8.0 13.0 0.00 0.00 0.00 74 1019.4
20181121045704 30 263 9.0 11.0 0.00 0.00 0.00 74 1019.4
20181121045504 30 256 10.0 11.0 0.00 0.00 0.00 74 1019.4
20181121045404 30 246 10.0 11.0 0.00 0.00 0.00 73 1019.5
20181121045304 30 261 10.0 10.0 0.00 0.00 0.00 73 1019.4
20181121045204 30 263 7.0 7.0 0.00 0.00 0.00 74 1019.4
20181121045004 30 269 10.0 12.0 0.00 0.00 0.00 74 1019.4
20181121044804 30 254 10.0 12.0 0.00 0.00 0.00 73 1019.4
20181121044604 30 261 9.0 14.0 0.00 0.00 0.00 73 1019.4
20181121044304 30 265 10.0 14.0 0.00 0.00 0.00 73 1019.4
20181121043604 30 257 9.0 16.0 0.00 0.00 0.00 72 1019.5
20181121043504 30 274 11.0 16.0 0.00 0.00 0.00 72 1019.4
20181121043304 30 272 9.0 14.0 0.00 0.00 0.00 73 1019.5
20181121043104 30 271 8.0 14.0 0.00 0.00 0.00 73 1019.5
20181121043004 30 236 10.0 13.0 0.00 0.00 0.00 73 1019.5
20181121042703 30 261 10.0 13.0 0.00 0.00 0.00 72 1019.4
20181121042604 30 233 12.0 15.0 0.00 0.00 0.00 72 1019.4
20181121042504 30 256 14.0 14.0 0.00 0.00 0.00 73 1019.4
20181121042404 30 244 11.0 11.0 0.00 0.00 0.00 73 1019.5
20181121042304 30 265 8.0 11.0 0.00 0.00 0.00 73 1019.4
20181121042203 30 250 9.0 11.0 0.00 0.00 0.00 73 1019.4
20181121042104 30 248 10.0 14.0 0.00 0.00 0.00 73 1019.4
20181121042004 30 254 11.0 14.0 0.00 0.00 0.00 72 1019.4
20181121041904 30 247 11.0 11.0 0.00 0.00 0.00 73 1019.4
20181121041804 30 244 9.0 11.0 0.00 0.00 0.00 72 1019.4
20181121041503 30 256 12.0 13.0 0.00 0.00 0.00 73 1019.4
20181121041303 30 268 9.0 12.0 0.00 0.00 0.00 72 1019.4
20181121041203 30 253 8.0 11.0 0.00 0.00 0.00 73 1019.4
20181121041003 30 253 9.0 15.0 0.00 0.00 0.00 72 1019.4
20181121040703 30 278 10.0 11.0 0.00 0.00 0.00 72 1019.5
20181121040503 30 247 9.0 15.0 0.00 0.00 0.00 73 1019.5
20181121040403 30 275 9.0 15.0 0.00 0.00 0.00 72 1019.4
20181121040003 30 248 10.0 15.0 0.00 0.00 0.00 72 1019.5
20181121035903 30 253 12.0 14.0 0.00 0.00 0.00 72 1019.5
20181121035803 30 245 11.0 13.0 0.00 0.00 0.00 73 1019.5
20181121035703 30 264 11.0 11.0 0.00 0.00 0.00 73 1019.4
20181121035603 30 254 13.0 14.0 0.00 0.00 0.00 72 1019.5
20181121035503 30 239 12.0 14.0 0.00 0.00 0.00 72 1019.5
20181121035303 30 267 13.0 14.0 0.00 0.00 0.00 72 1019.5
20181121035203 30 259 10.0 12.0 0.00 0.00 0.00 72 1019.5
20181121034903 30 238 11.0 17.0 0.00 0.00 0.00 71 1019.5
20181121034603 30 262 11.0 17.0 0.00 0.00 0.00 71 1019.5
20181121034504 30 259 10.0 17.0 0.00 0.00 0.00 72 1019.5
20181121034304 30 257 12.0 13.0 0.00 0.00 0.00 72 1019.6
20181121034203 30 268 11.0 11.0 0.00 0.00 0.00 71 1019.7
20181121034103 30 244 11.0 15.0 0.00 0.00 0.00 68 1019.6
20181121033903 30 260 10.0 15.0 0.00 0.00 0.00 72 1019.6
20181121033803 30 259 8.0 15.0 0.00 0.00 0.00 71 1019.6
20181121033703 30 262 12.0 15.0 0.00 0.00 0.00 71 1019.7
20181121033603 30 266 11.0 15.0 0.00 0.00 0.00 71 1019.7
20181121033503 30 277 14.0 14.0 0.00 0.00 0.00 72 1019.7
20181121033403 30 268 9.0 13.0 0.00 0.00 0.00 71 1019.7
20181121033303 30 274 10.0 13.0 0.00 0.00 0.00 71 1019.6
20181121033103 30 254 11.0 15.0 0.00 0.00 0.00 71 1019.7
20181121033003 30 259 12.0 15.0 0.00 0.00 0.00 71 1019.6
20181121032903 30 228 9.0 15.0 0.00 0.00 0.00 71 1019.7
20181121032703 29 266 10.0 15.0 0.00 0.00 0.00 70 1019.6
20181121032603 29 256 15.0 16.0 0.00 0.00 0.00 71 1019.7
20181121032503 30 250 10.0 14.0 0.00 0.00 0.00 71 1019.6
20181121032403 30 247 13.0 13.0 0.00 0.00 0.00 72 1019.6
20181121032103 30 271 7.0 14.0 0.00 0.00 0.00 71 1019.6
20181121032003 29 273 10.0 14.0 0.00 0.00 0.00 71 1019.6
20181121031903 29 238 10.0 14.0 0.00 0.00 0.00 71 1019.7
20181121031803 29 286 11.0 14.0 0.00 0.00 0.00 70 1019.6
20181121031703 29 252 10.0 10.0 0.00 0.00 0.00 70 1019.6
20181121031403 29 237 13.0 13.0 0.00 0.00 0.00 70 1019.7
20181121031103 29 263 10.0 16.0 0.00 0.00 0.00 70 1019.5
20181121031002 29 246 14.0 16.0 0.00 0.00 0.00 70 1019.6
20181121030902 29 252 10.0 14.0 0.00 0.00 0.00 70 1019.7
20181121030702 29 252 12.0 13.0 0.00 0.00 0.00 70 1019.7
20181121030202 29 267 16.0 16.0 0.00 0.00 0.00 69 1019.7
20181121025902 29 244 13.0 16.0 0.00 0.00 0.00 69 1019.7
20181121025802 29 254 10.0 16.0 0.00 0.00 0.00 69 1019.7
20181121025702 29 273 14.0 14.0 0.00 0.00 0.00 69 1019.7
20181121025602 29 240 10.0 16.0 0.00 0.00 0.00 69 1019.7
20181121025502 29 244 10.0 16.0 0.00 0.00 0.00 70 1019.7
20181121025203 29 270 10.0 10.0 0.00 0.00 0.00 69 1019.7
20181121025002 29 238 14.0 18.0 0.00 0.00 0.00 69 1019.7
20181121024902 29 229 12.0 14.0 0.00 0.00 0.00 69 1019.7
20181121024802 29 236 10.0 13.0 0.00 0.00 0.00 69 1019.7
20181121024602 29 263 9.0 16.0 0.00 0.00 0.00 69 1019.7
20181121024502 29 255 11.0 16.0 0.00 0.00 0.00 69 1019.7
20181121024403 29 249 12.0 16.0 0.00 0.00 0.00 69 1019.7
20181121024302 29 261 12.0 16.0 0.00 0.00 0.00 69 1019.7
20181121024202 29 241 11.0 15.0 0.00 0.00 0.00 69 1019.7
20181121024002 29 270 11.0 14.0 0.00 0.00 0.00 69 1019.7
20181121023702 29 242 10.0 12.0 0.00 0.00 0.00 68 1019.7
20181121023602 29 254 9.0 13.0 0.00 0.00 0.00 68 1019.7
20181121023402 29 257 9.0 12.0 0.00 0.00 0.00 68 1019.7
20181121023103 29 269 10.0 14.0 0.00 0.00 0.00 68 1019.7
20181121023002 29 244 12.0 14.0 0.00 0.00 0.00 68 1019.7
20181121022802 29 264 12.0 14.0 0.00 0.00 0.00 68 1019.7
20181121022602 29 253 9.0 13.0 0.00 0.00 0.00 68 1019.7
20181121022402 29 265 9.0 11.0 0.00 0.00 0.00 69 1019.7
20181121022302 29 258 9.0 11.0 0.00 0.00 0.00 68 1019.6
20181121022102 29 240 7.0 14.0 0.00 0.00 0.00 68 1019.7
20181121022002 29 239 8.0 14.0 0.00 0.00 0.00 68 1019.6
20181121021802 29 252 10.0 14.0 0.00 0.00 0.00 67 1019.6
20181121021702 29 260 11.0 14.0 0.00 0.00 0.00 68 1019.6
20181121021602 29 257 10.0 16.0 0.00 0.00 0.00 67 1019.6
20181121021302 29 263 12.0 16.0 0.00 0.00 0.00 67 1019.6
20181121021002 29 269 10.0 15.0 0.00 0.00 0.00 66 1019.6
20181121020902 29 243 12.0 15.0 0.00 0.00 0.00 67 1019.5
20181121020802 29 252 14.0 14.0 0.00 0.00 0.00 67 1019.6
20181121020702 29 225 10.0 11.0 0.00 0.00 0.00 67 1019.6
20181121020501 29 229 10.0 13.0 0.00 0.00 0.00 67 1019.5
20181121020402 29 252 10.0 13.0 0.00 0.00 0.00 67 1019.6
20181121020302 29 248 10.0 12.0 0.00 0.00 0.00 67 1019.5
20181121020001 29 255 10.0 14.0 0.00 0.00 0.00 67 1019.6
20181121015802 29 273 11.0 12.0 0.00 0.00 0.00 67 1019.6
20181121015602 29 265 10.0 16.0 0.00 0.00 0.00 66 1019.6
20181121015502 29 256 12.0 16.0 0.00 0.00 0.00 67 1019.6
20181121015301 29 239 10.0 10.0 0.00 0.00 0.00 67 1019.5
20181121015201 29 267 10.0 10.0 0.00 0.00 0.00 67 1019.5
20181121015102 29 252 10.0 14.0 0.00 0.00 0.00 67 1019.5
20181121015001 29 257 10.0 14.0 0.00 0.00 0.00 66 1019.5
20181121014801 29 266 10.0 12.0 0.00 0.00 0.00 65 1019.5
20181121014701 29 243 9.0 12.0 0.00 0.00 0.00 65 1019.4
20181121014401 29 263 9.0 17.0 0.00 0.00 0.00 65 1019.4
20181121014301 29 241 11.0 16.0 0.00 0.00 0.00 65 1019.4
20181121014001 29 265 13.0 17.0 0.00 0.00 0.00 65 1019.5
20181121013801 29 265 10.0 15.0 0.00 0.00 0.00 65 1019.5
20181121013701 29 247 15.0 15.0 0.00 0.00 0.00 65 1019.5
20181121013501 29 240 8.0 16.0 0.00 0.00 0.00 66 1019.4
20181121013301 29 240 10.0 16.0 0.00 0.00 0.00 65 1019.4
20181121013201 29 245 13.0 16.0 0.00 0.00 0.00 65 1019.5
20181121013001 29 255 14.0 16.0 0.00 0.00 0.00 65 1019.4
20181121012901 29 240 12.0 16.0 0.00 0.00 0.00 65 1019.3
20181121012701 29 270 9.0 11.0 0.00 0.00 0.00 65 1019.4
20181121012501 29 249 12.0 16.0 0.00 0.00 0.00 65 1019.4
20181121012301 29 263 10.0 13.0 0.00 0.00 0.00 65 1019.2
20181121012101 29 269 10.0 16.0 0.00 0.00 0.00 64 1019.2
20181121012001 29 242 11.0 16.0 0.00 0.00 0.00 64 1019.1
20181121011801 29 240 10.0 16.0 0.00 0.00 0.00 64 1019.2
20181121011701 29 254 16.0 16.0 0.00 0.00 0.00 64 1019.1
20181121011601 29 242 12.0 14.0 0.00 0.00 0.00 64 1019.2
20181121011501 29 244 12.0 14.0 0.00 0.00 0.00 65 1019.1
20181121011201 29 234 11.0 11.0 0.00 0.00 0.00 64 1019.1
20181121011101 29 237 9.0 16.0 0.00 0.00 0.00 64 1019.0
20181121011001 29 230 10.0 16.0 0.00 0.00 0.00 64 1019.0
20181121010901 29 249 14.0 16.0 0.00 0.00 0.00 64 1018.9
20181121010801 29 253 13.0 15.0 0.00 0.00 0.00 64 1019.0
20181121010701 29 236 10.0 13.0 0.00 0.00 0.00 64 1019.0
20181121010401 29 267 10.0 13.0 0.00 0.00 0.00 64 1019.1
20181121010301 29 238 10.0 12.0 0.00 0.00 0.00 65 1019.0
20181121010001 29 257 10.0 14.0 0.00 0.00 0.00 63 1019.0
20181121005801 29 225 10.0 14.0 0.00 0.00 0.00 63 1019.0
20181121005501 29 263 8.0 13.0 0.00 0.00 0.00 64 1019.0
20181121005401 29 232 10.0 13.0 0.00 0.00 0.00 63 1019.0
20181121005301 29 246 10.0 13.0 0.00 0.00 0.00 63 1019.0
20181121005001 29 248 9.0 12.0 0.00 0.00 0.00 62 1019.0
20181121004901 29 223 6.0 11.0 0.00 0.00 0.00 62 1019.0
20181121004801 29 245 8.0 11.0 0.00 0.00 0.00 62 1019.0
20181121004701 29 269 9.0 11.0 0.00 0.00 0.00 61 1019.1
20181121004600 29 251 12.0 17.0 0.00 0.00 0.00 61 1019.0
20181121004501 29 251 11.0 17.0 0.00 0.00 0.00 62 1019.1
20181121004401 29 252 12.0 17.0 0.00 0.00 0.00 62 1019.1
20181121004301 29 245 11.0 17.0 0.00 0.00 0.00 62 1019.0
20181121004201 29 250 17.0 17.0 0.00 0.00 0.00 61 1019.1
20181121004101 29 257 10.0 15.0 0.00 0.00 0.00 61 1019.0
20181121004001 29 257 11.0 15.0 0.00 0.00 0.00 61 1018.9
20181121003900 29 236 10.0 15.0 0.00 0.00 0.00 61 1019.0
20181121003600 29 246 10.0 18.0 0.00 0.00 0.00 61 1018.9
20181121003500 29 269 11.0 15.0 0.00 0.00 0.00 61 1018.8
20181121003400 29 249 11.0 15.0 0.00 0.00 0.00 61 1018.9
20181121003200 29 262 11.0 15.0 0.00 0.00 0.00 61 1018.9
20181121003100 29 216 13.0 19.0 0.00 0.00 0.00 61 1018.8
20181121002900 29 248 14.0 19.0 0.00 0.00 0.00 62 1018.8
20181121002700 28 244 10.0 12.0 0.00 0.00 0.00 61 1018.7
20181121002600 28 230 10.0 17.0 0.00 0.00 0.00 61 1018.7
20181121002500 28 243 13.0 17.0 0.00 0.00 0.00 61 1018.7
20181121002400 28 242 13.0 17.0 0.00 0.00 0.00 61 1018.7
20181121002200 28 245 11.0 11.0 0.00 0.00 0.00 62 1018.6
20181121002000 29 245 12.0 17.0 0.00 0.00 0.00 62 1018.6
20181121001700 28 230 10.0 13.0 0.00 0.00 0.00 62 1018.6
20181121001500 28 246 10.0 16.0 0.00 0.00 0.00 63 1018.7
20181121001401 28 241 10.0 16.0 0.00 0.00 0.00 63 1018.7
20181121001300 28 251 10.0 16.0 0.00 0.00 0.00 62 1018.7
20181121001200 28 234 8.0 10.0 0.00 0.00 0.00 63 1018.7
20181121000900 28 239 10.0 16.0 0.00 0.00 0.00 63 1018.7
20181121000700 28 259 13.0 14.0 0.00 0.00 0.00 62 1018.7
20181121000600 28 229 11.0 17.0 0.00 0.00 0.00 63 1018.7
20181121000500 28 240 10.0 17.0 0.00 0.00 0.00 62 1018.7
20181121000400 28 252 9.0 17.0 0.00 0.00 0.00 62 1018.8
20181121000300 28 251 10.0 16.0 0.00 0.00 0.00 62 1018.8
20181121000000 28 238 14.0 19.0 0.00 0.00 0.00 62 1018.8
20181120235600 28 248 16.0 16.0 0.00 0.00 0.00 62 1018.9
20181120235400 28 236 11.0 15.0 0.00 0.00 0.00 62 1019.0
20181120235200 28 244 10.0 10.0 0.00 0.00 0.00 62 1019.0
20181120235100 28 236 13.0 18.0 0.00 0.00 0.00 62 1019.1
20181120234400 28 259 12.0 20.0 0.00 0.00 0.00 62 1019.2
20181120234300 28 250 11.0 20.0 0.00 0.00 0.00 62 1019.2
20181120234200 28 254 19.0 20.0 0.00 0.00 0.00 62 1019.2
20181120233900 28 258 10.0 14.0 0.00 0.00 0.00 63 1019.3
20181120233700 28 241 9.0 12.0 0.00 0.00 0.00 63 1019.3
20181120233559 28 250 9.0 15.0 0.00 0.00 0.00 62 1019.3
20181120233259 28 245 11.0 14.0 0.00 0.00 0.00 63 1019.3
20181120233159 28 242 13.0 14.0 0.00 0.00 0.00 63 1019.2
20181120233059 28 252 12.0 15.0 0.00 0.00 0.00 62 1019.3
20181120232959 28 243 10.0 15.0 0.00 0.00 0.00 62 1019.3
20181120232900 28 232 14.0 15.0 0.00 0.00 0.00 62 1019.3
20181120232500 28 259 13.0 16.0 0.00 0.00 0.00 61 1019.4
20181120232300 28 240 13.0 16.0 0.00 0.00 0.00 61 1019.3
20181120232059 28 249 11.0 18.0 0.00 0.00 0.00 62 1019.5
20181120231759 28 260 12.0 14.0 0.00 0.00 0.00 62 1019.5
20181120231659 28 246 10.0 10.0 0.00 0.00 0.00 61 1019.4
20181120231600 28 263 11.0 18.0 0.00 0.00 0.00 61 1019.5
20181120231459 28 247 11.0 18.0 0.00 0.00 0.00 61 1019.5
20181120231259 28 257 12.0 14.0 0.00 0.00 0.00 62 1019.3
20181120231159 28 246 9.0 9.0 0.00 0.00 0.00 62 1019.3
20181120231059 28 248 13.0 17.0 0.00 0.00 0.00 62 1019.3
20181120230959 28 251 13.0 17.0 0.00 0.00 0.00 61 1019.3
20181120230759 28 257 17.0 17.0 0.00 0.00 0.00 60 1019.3
20181120230059 28 258 12.0 20.0 0.00 0.00 0.00 61 1019.2
20181120225859 28 253 16.0 18.0 0.00 0.00 0.00 60 1019.2
20181120225659 28 252 14.0 14.0 0.00 0.00 0.00 62 1019.2
20181120225559 28 254 13.0 19.0 0.00 0.00 0.00 61 1019.1
20181120225500 28 253 13.0 19.0 0.00 0.00 0.00 61 1019.2
20181120225159 28 251 17.0 18.0 0.00 0.00 0.00 61 1019.2
20181120225059 28 254 11.0 17.0 0.00 0.00 0.00 61 1019.2
20181120224959 29 219 5.0 15.0 0.00 0.00 0.00 61 1019.2
20181120224759 29 236 13.0 13.0 0.00 0.00 0.00 61 1019.3
20181120224700 29 254 9.0 13.0 0.00 0.00 0.00 62 1019.4
20181120224459 29 225 10.0 16.0 0.00 0.00 0.00 61 1019.5
20181120224359 29 225 12.0 14.0 0.00 0.00 0.00 61 1019.5
20181120224259 29 246 9.0 13.0 0.00 0.00 0.00 62 1019.5
20181120224159 29 249 11.0 13.0 0.00 0.00 0.00 61 1019.5
20181120223959 29 236 11.0 17.0 0.00 0.00 0.00 61 1019.5
20181120223459 29 242 12.0 21.0 0.00 0.00 0.00 61 1019.6
20181120223359 29 221 14.0 21.0 0.00 0.00 0.00 61 1019.6
20181120223259 29 242 12.0 16.0 0.00 0.00 0.00 60 1019.6
20181120223159 29 247 14.0 16.0 0.00 0.00 0.00 60 1019.6
20181120222859 29 259 11.0 20.0 0.00 0.00 0.00 61 1019.6
20181120222759 29 247 11.0 20.0 0.00 0.00 0.00 60 1019.6
20181120222659 29 247 17.0 17.0 0.00 0.00 0.00 60 1019.6
20181120222458 29 252 15.0 19.0 0.00 0.00 0.00 60 1019.6
20181120222259 29 257 12.0 19.0 0.00 0.00 0.00 61 1019.6
20181120222159 29 271 10.0 13.0 0.00 0.00 0.00 60 1019.6
20181120222058 29 246 11.0 19.0 0.00 0.00 0.00 59 1019.6
20181120221959 29 240 13.0 19.0 0.00 0.00 0.00 60 1019.6
20181120221859 29 244 17.0 19.0 0.00 0.00 0.00 62 1019.6
20181120221759 29 242 12.0 16.0 0.00 0.00 0.00 62 1019.6
20181120221658 29 257 12.0 13.0 0.00 0.00 0.00 61 1019.7
20181120221559 29 253 13.0 16.0 0.00 0.00 0.00 61 1019.7
20181120221158 29 257 10.0 15.0 0.00 0.00 0.00 60 1019.8
20181120221058 30 256 16.0 18.0 0.00 0.00 0.00 60 1019.8
20181120220958 30 259 12.0 17.0 0.00 0.00 0.00 61 1019.8
20181120220758 30 264 10.0 17.0 0.00 0.00 0.00 59 1019.8
20181120220258 30 242 12.0 17.0 0.00 0.00 0.00 61 1019.8
20181120215958 30 246 10.0 15.0 0.00 0.00 0.00 61 1019.9
20181120215858 30 234 8.0 10.0 0.00 0.00 0.00 61 1019.9
20181120215658 30 264 8.0 10.0 0.00 0.00 0.00 60 1019.8
20181120215558 30 256 12.0 17.0 0.00 0.00 0.00 60 1019.8
20181120215458 30 242 11.0 17.0 0.00 0.00 0.00 60 1019.8
20181120215358 30 239 10.0 15.0 0.00 0.00 0.00 59 1019.8
20181120215258 30 254 11.0 15.0 0.00 0.00 0.00 59 1019.7
20181120215158 30 219 14.0 14.0 0.00 0.00 0.00 60 1019.8
20181120215058 30 244 8.0 16.0 0.00 0.00 0.00 59 1019.8
20181120214958 30 254 12.0 16.0 0.00 0.00 0.00 59 1019.8
20181120214858 30 229 10.0 16.0 0.00 0.00 0.00 60 1019.7
20181120214558 30 252 14.0 17.0 0.00 0.00 0.00 59 1019.6
20181120214458 30 228 14.0 17.0 0.00 0.00 0.00 60 1019.6
20181120214258 30 237 13.0 17.0 0.00 0.00 0.00 60 1019.6
20181120214158 30 242 11.0 17.0 0.00 0.00 0.00 61 1019.8
20181120214058 30 259 14.0 20.0 0.00 0.00 0.00 61 1019.8
20181120213958 30 252 15.0 20.0 0.00 0.00 0.00 62 1019.8
20181120213758 30 257 18.0 18.0 0.00 0.00 0.00 62 1019.8
20181120213558 30 252 11.0 15.0 0.00 0.00 0.00 61 1019.7
20181120213258 30 218 12.0 15.0 0.00 0.00 0.00 61 1019.8
20181120213158 30 246 15.0 15.0 0.00 0.00 0.00 61 1019.8
20181120212958 30 250 11.0 16.0 0.00 0.00 0.00 61 1019.7
20181120212858 30 263 13.0 15.0 0.00 0.00 0.00 61 1019.7
20181120212758 30 250 13.0 15.0 0.00 0.00 0.00 61 1019.7
20181120212458 30 251 16.0 18.0 0.00 0.00 0.00 60 1019.8
20181120212058 30 252 12.0 18.0 0.00 0.00 0.00 63 1019.8
20181120211958 30 268 10.0 18.0 0.00 0.00 0.00 62 1019.8
20181120211858 30 265 11.0 18.0 0.00 0.00 0.00 62 1019.7
20181120211458 29 278 11.0 18.0 0.00 0.00 0.00 60 1019.8
20181120211358 29 252 10.0 18.0 0.00 0.00 0.00 60 1019.9
20181120210858 29 240 16.0 17.0 0.00 0.00 0.00 61 1020.0
20181120210758 29 238 13.0 16.0 0.00 0.00 0.00 61 1020.0
20181120210658 29 261 13.0 16.0 0.00 0.00 0.00 60 1020.0
20181120210458 29 259 18.0 20.0 0.00 0.00 0.00 59 1019.9
20181120210357 29 251 13.0 20.0 0.00 0.00 0.00 58 1019.9
20181120210057 29 256 19.0 25.0 0.00 0.00 0.00 59 1019.9
20181120205957 30 244 13.0 25.0 0.00 0.00 0.00 60 1020.0
20181120205757 30 253 16.0 25.0 0.00 0.00 0.00 60 1020.1
20181120205459 30 236 10.0 19.0 0.00 0.00 0.00 60 1020.1
20181120204858 30 256 14.0 19.0 0.00 0.00 0.00 59 1020.2
20181120204557 30 240 10.0 21.0 0.00 0.00 0.00 58 1020.1
20181120204457 30 239 15.0 21.0 0.00 0.00 0.00 60 1020.1
20181120204257 30 250 16.0 16.0 0.00 0.00 0.00 60 1020.1
20181120204058 30 242 15.0 23.0 0.00 0.00 0.00 59 1020.1
20181120203957 30 240 11.0 23.0 0.00 0.00 0.00 60 1020.1
20181120203657 30 248 16.0 18.0 0.00 0.00 0.00 59 1020.1
20181120203457 30 257 15.0 21.0 0.00 0.00 0.00 59 1020.1
20181120203257 30 250 19.0 21.0 0.00 0.00 0.00 59 1020.1
20181120203157 30 245 14.0 14.0 0.00 0.00 0.00 60 1020.2
20181120203057 30 257 12.0 22.0 0.00 0.00 0.00 58 1020.1
20181120202957 30 248 16.0 20.0 0.00 0.00 0.00 57 1020.0
20181120202857 30 254 13.0 17.0 0.00 0.00 0.00 58 1020.1
20181120202657 30 241 10.0 17.0 0.00 0.00 0.00 58 1020.1
20181120202557 30 252 16.0 23.0 0.00 0.00 0.00 58 1020.1
20181120202457 30 221 19.0 23.0 0.00 0.00 0.00 59 1020.1
20181120202357 30 238 16.0 19.0 0.00 0.00 0.00 58 1020.1
20181120202257 30 275 16.0 19.0 0.00 0.00 0.00 58 1020.2
20181120202157 30 259 15.0 19.0 0.00 0.00 0.00 59 1020.2
20181120202057 30 251 20.0 20.0 0.00 0.00 0.00 59 1020.3
20181120201957 30 250 12.0 19.0 0.00 0.00 0.00 59 1020.2
20181120201757 30 260 11.0 19.0 0.00 0.00 0.00 59 1020.2
20181120201657 30 236 15.0 19.0 0.00 0.00 0.00 59 1020.2
20181120201557 30 259 15.0 21.0 0.00 0.00 0.00 59 1020.1
20181120201457 30 252 11.0 21.0 0.00 0.00 0.00 59 1020.2
20181120201357 30 250 19.0 21.0 0.00 0.00 0.00 60 1020.1
20181120201157 30 254 17.0 17.0 0.00 0.00 0.00 59 1020.1
20181120201057 30 274 20.0 20.0 0.00 0.00 0.00 59 1020.1
20181120200957 30 246 11.0 20.0 0.00 0.00 0.00 58 1020.1
20181120200857 30 254 15.0 20.0 0.00 0.00 0.00 60 1020.1
20181120200657 30 223 10.0 14.0 0.00 0.00 0.00 61 1020.2
20181120200557 30 265 10.0 18.0 0.00 0.00 0.00 61 1020.3
20181120200057 30 266 12.0 18.0 0.00 0.00 0.00 59 1020.3
20181120195957 30 259 13.0 18.0 0.00 0.00 0.00 59 1020.3
20181120195858 30 248 16.0 18.0 0.00 0.00 0.00 59 1020.3
20181120195757 30 248 13.0 18.0 0.00 0.00 0.00 60 1020.3
20181120195657 30 251 13.0 13.0 0.00 0.00 0.00 60 1020.3
20181120195557 30 236 10.0 17.0 0.00 0.00 0.00 60 1020.3
20181120195356 30 251 8.0 17.0 0.00 0.00 0.00 59 1020.3
20181120195057 30 260 13.0 17.0 0.00 0.00 0.00 58 1020.3
20181120194957 30 223 11.0 17.0 0.00 0.00 0.00 60 1020.3
20181120194757 30 246 10.0 15.0 0.00 0.00 0.00 60 1020.4
20181120194658 30 238 10.0 10.0 0.00 0.00 0.00 60 1020.3
20181120194556 30 231 12.0 19.0 0.00 0.00 0.00 61 1020.3
20181120194356 30 251 13.0 19.0 0.00 0.00 0.00 59 1020.4
20181120194256 30 246 16.0 19.0 0.00 0.00 0.00 58 1020.4
20181120193757 30 217 13.0 17.0 0.00 0.00 0.00 58 1020.5
20181120193656 30 219 13.0 13.0 0.00 0.00 0.00 58 1020.6
20181120193556 30 254 14.0 21.0 0.00 0.00 0.00 58 1020.6
20181120193456 30 252 17.0 18.0 0.00 0.00 0.00 58 1020.5
20181120193356 30 234 16.0 18.0 0.00 0.00 0.00 59 1020.6
20181120193256 30 248 16.0 17.0 0.00 0.00 0.00 59 1020.6
20181120193156 30 249 11.0 14.0 0.00 0.00 0.00 59 1020.6
20181120193056 30 230 12.0 21.0 0.00 0.00 0.00 59 1020.6
20181120192957 30 260 17.0 19.0 0.00 0.00 0.00 60 1020.6
20181120192856 30 231 11.0 19.0 0.00 0.00 0.00 61 1020.7
20181120192756 30 219 10.0 16.0 0.00 0.00 0.00 60 1020.7
20181120192556 30 228 7.0 17.0 0.00 0.00 0.00 60 1020.9
20181120192456 30 254 13.0 17.0 0.00 0.00 0.00 59 1020.9
20181120192257 30 257 14.0 14.0 0.00 0.00 0.00 60 1020.9
20181120192156 30 246 11.0 12.0 0.00 0.00 0.00 59 1020.9
20181120192056 30 258 10.0 14.0 0.00 0.00 0.00 60 1021.0
20181120191856 30 261 10.0 13.0 0.00 0.00 0.00 60 1021.2
20181120191656 30 229 11.0 12.0 0.00 0.00 0.00 59 1021.1
20181120191056 30 236 8.0 17.0 0.00 0.00 0.00 59 1021.3
20181120190956 30 254 10.0 17.0 0.00 0.00 0.00 60 1021.3
20181120190856 30 245 10.0 15.0 0.00 0.00 0.00 59 1021.3
20181120190656 30 244 11.0 11.0 0.00 0.00 0.00 60 1021.5
20181120190556 30 242 10.0 17.0 0.00 0.00 0.00 60 1021.6
20181120190456 30 216 9.0 17.0 0.00 0.00 0.00 60 1021.7
20181120190356 30 217 7.0 17.0 0.00 0.00 0.00 60 1021.6
20181120190256 30 252 17.0 17.0 0.00 0.00 0.00 60 1021.7
20181120190156 30 221 9.0 13.0 0.00 0.00 0.00 60 1021.7
20181120190056 30 250 10.0 17.0 0.00 0.00 0.00 62 1021.7
20181120185756 29 242 13.0 17.0 0.00 0.00 0.00 60 1021.6
20181120185057 29 248 20.0 20.0 0.00 0.00 0.00 60 1021.9
20181120184956 29 249 13.0 16.0 0.00 0.00 0.00 61 1021.9
20181120184856 29 242 8.0 16.0 0.00 0.00 0.00 62 1021.9
20181120184656 29 261 11.0 13.0 0.00 0.00 0.00 60 1021.9
20181120184256 29 257 14.0 17.0 0.00 0.00 0.00 60 1022.0
20181120184156 29 257 15.0 17.0 0.00 0.00 0.00 61 1022.0
20181120184055 29 244 17.0 21.0 0.00 0.00 0.00 61 1022.1
20181120183956 29 246 15.0 21.0 0.00 0.00 0.00 62 1022.1
20181120183556 29 254 10.0 17.0 0.00 0.00 0.00 65 1022.1
20181120183455 29 263 11.0 17.0 0.00 0.00 0.00 64 1022.2
20181120183256 29 272 10.0 17.0 0.00 0.00 0.00 64 1022.2
20181120183156 29 254 16.0 16.0 0.00 0.00 0.00 64 1022.2
20181120182956 29 264 12.0 13.0 0.00 0.00 0.00 64 1022.1
20181120182855 29 265 10.0 13.0 0.00 0.00 0.00 63 1022.1
20181120182655 29 242 10.0 12.0 0.00 0.00 0.00 63 1022.0
20181120182455 29 231 7.0 16.0 0.00 0.00 0.00 63 1022.0
20181120182355 29 219 10.0 16.0 0.00 0.00 0.00 62 1022.0
20181120182255 29 252 12.0 16.0 0.00 0.00 0.00 62 1022.0
20181120182155 29 240 10.0 16.0 0.00 0.00 0.00 62 1022.0
20181120181955 29 251 10.0 16.0 0.00 0.00 0.00 63 1021.9
20181120181755 29 252 13.0 14.0 0.00 0.00 0.00 64 1021.9
20181120181655 29 250 10.0 13.0 0.00 0.00 0.00 64 1021.9
20181120181555 29 255 15.0 17.0 0.00 0.00 0.00 65 1021.9
20181120181255 29 256 13.0 13.0 0.00 0.00 0.00 65 1021.9
20181120181155 29 239 9.0 11.0 0.00 0.00 0.00 65 1021.9
20181120180755 28 228 9.0 10.0 0.00 0.00 0.00 67 1021.9
20181120180655 28 218 6.0 10.0 0.00 0.00 0.00 67 1021.9
20181120180555 28 238 9.0 14.0 0.00 0.00 0.00 67 1021.9
20181120180455 28 235 8.0 14.0 0.00 0.00 0.00 66 1021.9
20181120180255 28 240 10.0 11.0 0.00 0.00 0.00 68 1022.0
20181120180155 28 246 10.0 10.0 0.00 0.00 0.00 68 1022.0
20181120180055 28 242 8.0 16.0 0.00 0.00 0.00 68 1022.0
20181120175555 28 252 12.0 12.0 0.00 0.00 0.00 69 1022.4
20181120175455 28 225 8.0 12.0 0.00 0.00 0.00 69 1022.5
20181120175155 28 250 10.0 10.0 0.00 0.00 0.00 69 1022.8
20181120175055 28 261 7.0 12.0 0.00 0.00 0.00 69 1022.8
20181120174955 28 263 7.0 12.0 0.00 0.00 0.00 70 1022.8
20181120174855 28 263 10.0 12.0 0.00 0.00 0.00 69 1022.8
20181120174755 28 262 10.0 12.0 0.00 0.00 0.00 69 1022.8
20181120174555 28 252 11.0 13.0 0.00 0.00 0.00 69 1022.8
20181120174055 28 238 9.0 11.0 0.00 0.00 0.00 70 1023.0
20181120173955 28 263 10.0 11.0 0.00 0.00 0.00 70 1023.0
20181120173755 28 252 8.0 10.0 0.00 0.00 0.00 71 1023.0
20181120173655 28 263 9.0 10.0 0.00 0.00 0.00 70 1022.9
20181120173555 28 257 10.0 12.0 0.00 0.00 0.00 70 1022.9
20181120173455 28 263 10.0 12.0 0.00 0.00 0.00 70 1022.9
20181120173255 28 256 10.0 11.0 0.00 0.00 0.00 70 1023.0
20181120173055 28 262 9.0 13.0 0.00 0.00 0.00 69 1023.0
20181120172955 28 267 9.0 13.0 0.00 0.00 0.00 69 1023.0
20181120172654 28 219 5.0 8.0 0.00 0.00 0.00 70 1023.2
20181120172055 28 269 11.0 13.0 0.00 0.00 0.00 71 1023.5
20181120171955 28 271 7.0 13.0 0.00 0.00 0.00 71 1023.5
20181120171754 28 250 11.0 13.0 0.00 0.00 0.00 70 1023.6
20181120171654 28 252 11.0 11.0 0.00 0.00 0.00 70 1023.6
20181120171554 28 254 12.0 15.0 0.00 0.00 0.00 71 1023.6
20181120171354 28 263 10.0 14.0 0.00 0.00 0.00 69 1023.8
20181120171154 28 259 13.0 13.0 0.00 0.00 0.00 69 1023.8
20181120171054 28 255 11.0 14.0 0.00 0.00 0.00 70 1023.8
20181120170754 28 269 9.0 10.0 0.00 0.00 0.00 71 1023.9
20181120170654 28 280 9.0 10.0 0.00 0.00 0.00 71 1023.9
20181120170554 28 266 6.0 12.0 0.00 0.00 0.00 71 1024.0
20181120170454 28 271 8.0 12.0 0.00 0.00 0.00 72 1024.0
20181120170354 28 259 9.0 12.0 0.00 0.00 0.00 71 1024.0
20181120170254 28 258 12.0 12.0 0.00 0.00 0.00 71 1024.0
20181120170154 28 270 10.0 11.0 0.00 0.00 0.00 72 1024.1
20181120165954 28 268 10.0 13.0 0.00 0.00 0.00 71 1024.2
20181120165854 28 275 7.0 13.0 0.00 0.00 0.00 70 1024.2
20181120165754 28 276 3.0 13.0 0.00 0.00 0.00 71 1024.2
20181120165554 28 248 9.0 10.0 0.00 0.00 0.00 71 1024.2
20181120165454 28 252 6.0 10.0 0.00 0.00 0.00 71 1024.3
20181120165354 28 245 8.0 10.0 0.00 0.00 0.00 72 1024.4
20181120165055 28 271 7.0 12.0 0.00 0.00 0.00 72 1024.4
20181120164855 28 265 7.0 12.0 0.00 0.00 0.00 73 1024.4
20181120164755 27 257 10.0 12.0 0.00 0.00 0.00 72 1024.4
20181120164354 27 246 9.0 11.0 0.00 0.00 0.00 71 1024.5
20181120164254 27 246 9.0 11.0 0.00 0.00 0.00 71 1024.5
20181120163754 27 263 7.0 10.0 0.00 0.00 0.00 71 1024.6
20181120163654 27 269 8.0 10.0 0.00 0.00 0.00 72 1024.6
20181120163554 27 269 7.0 10.0 0.00 0.00 0.00 71 1024.6
20181120163254 27 273 6.0 7.0 0.00 0.00 0.00 71 1024.6
20181120162854 27 267 8.0 12.0 0.00 0.00 0.00 72 1024.5
20181120162754 27 256 11.0 12.0 0.00 0.00 0.00 71 1024.4
20181120162354 27 248 8.0 8.0 0.00 0.00 0.00 71 1024.2
20181120162154 27 271 7.0 7.0 0.00 0.00 0.00 71 1024.3
20181120161853 27 268 6.0 9.0 0.00 0.00 0.00 72 1024.3
20181120161654 27 267 5.0 5.0 0.00 0.00 0.00 72 1024.2
20181120161553 27 255 7.0 10.0 0.00 0.00 0.00 72 1024.2
20181120161454 27 264 8.0 10.0 0.00 0.00 0.00 72 1024.3
20181120161254 27 235 6.0 10.0 0.00 0.00 0.00 71 1024.4
20181120160953 27 244 9.0 10.0 0.00 0.00 0.00 72 1024.4
20181120160754 27 271 6.0 9.0 0.00 0.00 0.00 72 1024.4
20181120160654 27 252 7.0 7.0 0.00 0.00 0.00 72 1024.3
20181120160553 27 238 7.0 8.0 0.00 0.00 0.00 72 1024.3
20181120160453 27 257 8.0 8.0 0.00 0.00 0.00 72 1024.2
20181120160354 27 267 6.0 6.0 0.00 0.00 0.00 72 1024.2
20181120160053 27 267 7.0 10.0 0.00 0.00 0.00 73 1024.3
20181120155953 27 267 7.0 7.0 0.00 0.00 0.00 72 1024.2
20181120155854 27 267 1.0 6.0 0.00 0.00 0.00 72 1024.2
20181120155653 27 268 1.0 3.0 0.00 0.00 0.00 73 1024.3
20181120155553 27 296 2.0 5.0 0.00 0.00 0.00 73 1024.3
20181120155353 27 298 1.0 5.0 0.00 0.00 0.00 73 1024.3
20181120155253 27 283 0.0 5.0 0.00 0.00 0.00 73 1024.4
20181120155153 27 289 1.0 1.0 0.00 0.00 0.00 73 1024.4
20181120155053 26 289 1.0 7.0 0.00 0.00 0.00 73 1024.4
20181120154753 26 248 6.0 6.0 0.00 0.00 0.00 73 1024.4
20181120154353 26 229 2.0 8.0 0.00 0.00 0.00 73 1024.3
20181120154053 26 271 0.0 7.0 0.00 0.00 0.00 73 1024.5
20181120153853 26 270 7.0 7.0 0.00 0.00 0.00 73 1024.5
20181120153553 26 281 0.0 7.0 0.00 0.00 0.00 74 1024.4
20181120153353 26 265 5.0 7.0 0.00 0.00 0.00 73 1024.4
20181120153253 26 273 0.0 6.0 0.00 0.00 0.00 73 1024.4
20181120153153 26 273 5.0 6.0 0.00 0.00 0.00 73 1024.4
20181120152953 26 273 6.0 10.0 0.00 0.00 0.00 74 1024.3
20181120152753 26 279 5.0 7.0 0.00 0.00 0.00 73 1024.3
20181120152453 26 269 5.0 6.0 0.00 0.00 0.00 74 1024.4
20181120152353 26 263 1.0 5.0 0.00 0.00 0.00 74 1024.5
20181120152253 26 263 1.0 5.0 0.00 0.00 0.00 75 1024.5
20181120152153 26 263 3.0 5.0 0.00 0.00 0.00 75 1024.6
20181120152053 26 261 6.0 8.0 0.00 0.00 0.00 75 1024.6
20181120151353 26 272 0.0 1.0 0.00 0.00 0.00 77 1024.5
20181120151253 26 271 0.0 1.0 0.00 0.00 0.00 77 1024.6
20181120151153 25 263 0.0 0.0 0.00 0.00 0.00 77 1024.7
20181120150553 25 246 2.0 4.0 0.00 0.00 0.00 78 1024.7
20181120150453 25 246 0.0 4.0 0.00 0.00 0.00 78 1024.7
20181120150253 25 246 2.0 4.0 0.00 0.00 0.00 78 1024.6
20181120150153 25 246 3.0 4.0 0.00 0.00 0.00 77 1024.6
20181120150052 25 246 3.0 6.0 0.00 0.00 0.00 78 1024.6
20181120145953 25 246 4.0 6.0 0.00 0.00 0.00 78 1024.6
20181120145854 25 246 3.0 6.0 0.00 0.00 0.00 78 1024.6
20181120145752 25 245 3.0 6.0 0.00 0.00 0.00 78 1024.6
20181120145653 25 245 6.0 6.0 0.00 0.00 0.00 79 1024.5
20181120144752 24 243 2.0 3.0 0.00 0.00 0.00 79 1024.4
20181120144653 24 247 0.0 0.0 0.00 0.00 0.00 79 1024.5
20181120144552 24 247 1.0 3.0 0.00 0.00 0.00 79 1024.5
20181120144452 24 248 0.0 3.0 0.00 0.00 0.00 79 1024.6
20181120144352 24 248 0.0 3.0 0.00 0.00 0.00 79 1024.5
20181120144252 24 248 1.0 3.0 0.00 0.00 0.00 79 1024.5
20181120144152 24 232 2.0 2.0 0.00 0.00 0.00 79 1024.5
20181120144052 24 261 0.0 1.0 0.00 0.00 0.00 79 1024.5
20181120143952 24 261 0.0 1.0 0.00 0.00 0.00 79 1024.5
20181120143852 24 261 0.0 1.0 0.00 0.00 0.00 79 1024.5
20181120143752 24 261 0.0 1.0 0.00 0.00 0.00 79 1024.5
20181120143652 24 261 0.0 0.0 0.00 0.00 0.00 80 1024.5
20181120143552 24 261 1.0 3.0 0.00 0.00 0.00 80 1024.5
20181120143452 24 261 1.0 3.0 0.00 0.00 0.00 80 1024.5
20181120143352 24 261 0.0 2.0 0.00 0.00 0.00 80 1024.5
20181120143252 24 261 1.0 1.0 0.00 0.00 0.00 80 1024.6
20181120143152 24 261 1.0 1.0 0.00 0.00 0.00 80 1024.5
20181120143052 24 256 0.0 2.0 0.00 0.00 0.00 80 1024.5
20181120142752 24 256 0.0 2.0 0.00 0.00 0.00 81 1024.4
20181120142652 24 256 1.0 2.0 0.00 0.00 0.00 81 1024.4
20181120142552 24 256 1.0 2.0 0.00 0.00 0.00 81 1024.4
20181120142452 24 257 2.0 2.0 0.00 0.00 0.00 81 1024.4
20181120142252 24 257 0.0 2.0 0.00 0.00 0.00 81 1024.4
20181120141753 24 257 1.0 3.0 0.00 0.00 0.00 81 1024.3
20181120141652 24 257 2.0 2.0 0.00 0.00 0.00 81 1024.3
20181120141452 24 360 0.0 1.0 0.00 0.00 0.00 82 1024.3
20181120141352 24 5 0.0 1.0 0.00 0.00 0.00 82 1024.3
20181120141152 24 9 0.0 1.0 0.00 0.00 0.00 82 1024.3
20181120140952 24 14 1.0 1.0 0.00 0.00 0.00 82 1024.3
20181120140852 24 15 0.0 0.0 0.00 0.00 0.00 82 1024.3
20181120140652 24 15 0.0 0.0 0.00 0.00 0.00 82 1024.2
20181120140552 24 15 0.0 0.0 0.00 0.00 0.00 82 1024.2
20181120140452 24 15 0.0 0.0 0.00 0.00 0.00 82 1024.3
20181120140052 24 15 0.0 0.0 0.00 0.00 0.00 83 1024.4
20181120135952 24 15 0.0 0.0 0.00 0.00 0.00 83 1024.4
20181120135852 24 15 0.0 0.0 0.00 0.00 0.00 83 1024.4
20181120135652 24 15 0.0 0.0 0.00 0.00 0.00 84 1024.4
20181120135552 24 15 0.0 0.0 0.00 0.00 0.00 84 1024.3
20181120135051 24 15 0.0 0.0 0.00 0.00 0.00 84 1024.3
20181120134452 22 15 0.0 0.0 0.00 0.00 0.00 84 1024.3
20181120134252 22 15 0.0 0.0 0.00 0.00 0.00 83 1024.2
20181120133952 22 15 0.0 0.0 0.00 0.00 0.00 83 1024.3
20181120133852 22 15 0.0 0.0 0.00 0.00 0.00 83 1024.3